EW9696 Timbaki GR current weather conditions

sailwx.info

Wind from 236 at 5 knots gusting 13

Air temperature 26.1° C
Dewpoint 22.4° C

Last reported at 2020-Aug-07 17:07 UTC.
Time now 2020-Aug-07 17:58 UTC

Location: N 35°04' E 024°46'.
View on Google Maps.

See reports from other nearby stations

  
Tides and Currents Weather Stations Pressure Air Temp Water Temp Dewpoint Dewpoint Depression Visibility Wind Speed Wind Dir Waves Ship Positions
date/time (UTC)wind fromknots sea level pressurealtimeterstation pressurevisibilityair tempwater tempwave heightnotes
2020-Aug-07 17:07 236 5 gusting 13 26.1
2020-Aug-07 17:02 273 5 gusting 13 26.1
2020-Aug-07 16:57 285 5 gusting 13 26.7
2020-Aug-07 16:52 239 5 gusting 15 26.7
2020-Aug-07 16:47 278 6 gusting 15 26.7
2020-Aug-07 16:42 252 7 gusting 13 26.7
2020-Aug-07 16:37 269 6 gusting 16 26.7
2020-Aug-07 16:32 273 5 gusting 16 26.7
2020-Aug-07 16:27 288 5 gusting 16 26.7
2020-Aug-07 16:22 235 5 gusting 15 26.7
2020-Aug-07 16:17 289 5 gusting 13 27.2
2020-Aug-07 16:12 236 5 gusting 13 27.2
2020-Aug-07 16:07 232 6 gusting 16 27.2
2020-Aug-07 16:02 282 6 gusting 16 27.2
2020-Aug-07 15:57 292 6 gusting 17 27.2
2020-Aug-07 15:52 266 7 gusting 17 27.2
2020-Aug-07 15:47 262 7 gusting 18 27.2
2020-Aug-07 15:42 246 8 gusting 18 27.2
2020-Aug-07 15:37 271 8 gusting 19 27.2
2020-Aug-07 15:32 269 8 gusting 19 27.2
2020-Aug-07 15:27 248 9 gusting 19 27.2
2020-Aug-07 15:22 256 8 gusting 18 27.2
2020-Aug-07 15:17 238 9 gusting 19 27.2
2020-Aug-07 15:12 262 9 gusting 19 27.2
2020-Aug-07 15:07 239 10 gusting 19 27.2
2020-Aug-07 15:02 242 10 gusting 19 27.2
2020-Aug-07 14:57 290 9 gusting 19 27.2
2020-Aug-07 14:52 255 7 gusting 17 27.8
2020-Aug-07 14:47 262 6 gusting 19 27.8
2020-Aug-07 14:42 278 7 gusting 22 27.8
2020-Aug-07 14:37 249 8 gusting 22 27.8
2020-Aug-07 14:32 250 8 gusting 22 27.8
2020-Aug-07 14:27 255 11 gusting 22 27.8
2020-Aug-07 14:22 284 11 gusting 22 27.8
2020-Aug-07 14:17 266 9 gusting 19 27.8
2020-Aug-07 14:12 282 9 gusting 19 27.8
2020-Aug-07 14:07 262 8 gusting 19 27.8
2020-Aug-07 14:02 209 7 gusting 19 28.3
2020-Aug-07 13:57 264 7 gusting 25 28.3
2020-Aug-07 13:52 229 6 gusting 25 28.3
2020-Aug-07 13:47 266 7 gusting 25 28.3
2020-Aug-07 13:42 250 9 gusting 22 28.3
2020-Aug-07 13:37 264 10 gusting 18 28.3
2020-Aug-07 13:32 255 8 gusting 18 28.3
2020-Aug-07 13:27 250 6 gusting 19 28.3
2020-Aug-07 13:22 233 9 gusting 19 28.3
2020-Aug-07 13:17 238 8 gusting 21 28.3
2020-Aug-07 13:12 255 8 gusting 21 28.3
2020-Aug-07 13:07 233 8 gusting 21 28.3
2020-Aug-07 13:02 241 6 gusting 18 28.3
2020-Aug-07 12:57 221 8 gusting 18 28.3
2020-Aug-07 12:52 248 9 gusting 16 28.3
2020-Aug-07 12:47 255 7 gusting 16 28.3
2020-Aug-07 12:42 235 6 gusting 16 28.3
2020-Aug-07 12:37 236 6 gusting 16 28.3
2020-Aug-07 12:32 271 6 gusting 17 28.3
2020-Aug-07 12:27 255 7 gusting 18 28.3
2020-Aug-07 12:22 228 7 gusting 18 28.3
2020-Aug-07 12:17 271 6 gusting 18 28.3
2020-Aug-07 12:12 255 8 gusting 17 28.3
2020-Aug-07 12:07 240 7 gusting 17 28.3
2020-Aug-07 12:02 221 6 gusting 16 28.3
2020-Aug-07 11:57 238 7 gusting 18 28.3
2020-Aug-07 11:52 237 8 gusting 19 28.3
2020-Aug-07 11:47 245 8 gusting 22 28.3
2020-Aug-07 11:42 253 9 gusting 22 28.3
2020-Aug-07 11:37 236 11 gusting 22 28.3
2020-Aug-07 11:32 245 10 gusting 19 28.3
2020-Aug-07 11:27 244 7 gusting 18 28.3
2020-Aug-07 11:22 285 6 gusting 16 28.9
2020-Aug-07 11:17 231 6 gusting 15 28.9
2020-Aug-07 11:12 240 5 gusting 15 28.9
2020-Aug-07 11:07 154 6 gusting 15 28.9
2020-Aug-07 11:02 245 6 gusting 15 28.3
2020-Aug-07 10:57 255 4 gusting 13 28.9
2020-Aug-07 10:52 211 4 gusting 13 28.3
2020-Aug-07 10:47 250 4 gusting 13 28.9
2020-Aug-07 10:42 233 4 gusting 13 28.3
2020-Aug-07 10:37 240 4 gusting 13 28.3
2020-Aug-07 10:32 265 5 gusting 11 28.3
2020-Aug-07 10:27 259 4 gusting 11 28.3
2020-Aug-07 10:22 245 2 gusting 11 28.3
2020-Aug-07 10:17 217 2 gusting 9 28.3
2020-Aug-07 10:12 243 2 gusting 9 28.3
2020-Aug-07 10:07 236 1 gusting 8 28.3
2020-Aug-07 10:02 255 1 gusting 8 28.3
2020-Aug-07 09:57 236 2 gusting 11 27.8
2020-Aug-07 09:52 262 2 gusting 11 27.8
2020-Aug-07 09:47 231 4 gusting 11 27.8
2020-Aug-07 09:42 240 3 gusting 9 27.8
2020-Aug-07 09:37 231 2 gusting 8 28.3
2020-Aug-07 09:32 267 2 gusting 9 28.3
2020-Aug-07 09:27 283 2 gusting 11 27.8
2020-Aug-07 09:22 231 3 gusting 11 27.8
2020-Aug-07 09:17 210 4 gusting 11 27.8
2020-Aug-07 09:12 250 3 gusting 10 27.8
2020-Aug-07 09:07 231 4 gusting 10 27.8
2020-Aug-07 09:02 245 3 gusting 6 27.8
2020-Aug-07 08:57 240 0 gusting 6 27.8
2020-Aug-07 08:52 264 1 gusting 6 27.8
2020-Aug-07 08:47 271 1 gusting 6 27.8
2020-Aug-07 08:42 257 0 gusting 5 28.3
2020-Aug-07 08:37 229 0 gusting 5 27.8
2020-Aug-07 08:32 262 0 gusting 5 27.8
2020-Aug-07 08:27 245 1 gusting 5 27.8
2020-Aug-07 08:22 238 1 gusting 6 27.8
2020-Aug-07 08:17 210 0 gusting 6 27.8
2020-Aug-07 08:12 218 0 gusting 6 28.3
2020-Aug-07 08:07 229 28.3
2020-Aug-07 08:02 250 27.8
2020-Aug-07 07:57 229 27.8
2020-Aug-07 07:52 214 28.3
2020-Aug-07 07:47 167 27.8
2020-Aug-07 07:42 219 27.8
2020-Aug-07 07:37 232 27.8
2020-Aug-07 07:32 237 27.8
2020-Aug-07 07:27 247 27.8
2020-Aug-07 07:22 208 27.8
2020-Aug-07 07:17 207 27.8
2020-Aug-07 07:12 203 27.8
2020-Aug-07 07:07 208 27.8
2020-Aug-07 07:02 216 27.8
2020-Aug-07 06:57 202 27.8
2020-Aug-07 06:52 157 27.8
2020-Aug-07 06:47 212 27.8
2020-Aug-07 06:42 229 27.8
2020-Aug-07 06:37 155 27.8
2020-Aug-07 06:32 162 27.8
2020-Aug-07 06:27 152 27.2
2020-Aug-07 06:22 246 27.2
2020-Aug-07 06:17 254 27.2
2020-Aug-07 06:12 250 27.2
2020-Aug-07 06:07 208 27.2
2020-Aug-07 06:02 151 27.2
2020-Aug-07 05:57 210 27.2
2020-Aug-07 05:52 240 26.7
2020-Aug-07 05:47 150 26.7
2020-Aug-07 05:42 121 26.1
2020-Aug-07 05:37 102 26.1
2020-Aug-07 05:32 072 25.6
2020-Aug-07 05:27 047 25.6
2020-Aug-07 05:22 025 25.0
2020-Aug-07 05:17 025 24.4
2020-Aug-07 05:12 010 23.9
2020-Aug-07 05:07 010 23.3
2020-Aug-07 05:02 020 23.3
2020-Aug-07 04:57 22.8
2020-Aug-07 04:52 015 22.8
2020-Aug-07 04:47 044 22.8
2020-Aug-07 04:42 040 22.8
2020-Aug-07 04:37 033 22.8
2020-Aug-07 04:32 028 22.8
2020-Aug-07 04:27 028 22.2
2020-Aug-07 04:22 028 22.2
2020-Aug-07 04:17 028 22.2
2020-Aug-07 04:12 028 22.2
2020-Aug-07 04:07 071 22.2
2020-Aug-07 04:02 040 22.2
2020-Aug-07 03:57 040 22.2
2020-Aug-07 03:52 046 22.2
2020-Aug-07 03:47 037 22.2
2020-Aug-07 03:42 037 22.2
2020-Aug-07 03:37 037 22.2
2020-Aug-07 03:32 037 22.2
2020-Aug-07 03:27 037 22.2
2020-Aug-07 03:22 037 22.8
2020-Aug-07 03:17 056 22.8
2020-Aug-07 03:12 041 22.8
2020-Aug-07 03:07 041 22.8
2020-Aug-07 03:02 041 22.8
2020-Aug-07 02:57 049 22.8
2020-Aug-07 02:52 049 22.8
2020-Aug-07 02:47 049 22.8
2020-Aug-07 02:42 049 22.8
2020-Aug-07 02:37 037 22.8
2020-Aug-07 02:32 051 22.8
2020-Aug-07 02:27 024 23.3
2020-Aug-07 02:22 024 23.3
2020-Aug-07 02:17 024 23.3
2020-Aug-07 02:12 024 23.9
2020-Aug-07 02:07 025 23.9
2020-Aug-07 02:02 024 23.9
2020-Aug-07 01:57 024 23.9
2020-Aug-07 01:52 024 23.9
2020-Aug-07 01:47 025 23.9
2020-Aug-07 01:42 025 23.9
2020-Aug-07 01:37 024 23.9
2020-Aug-07 01:32 024 23.9
2020-Aug-07 01:27 024 23.9
2020-Aug-07 01:22 024 23.9
2020-Aug-07 01:17 024 23.9
2020-Aug-07 01:12 024 23.3
2020-Aug-07 01:07 024 23.3
2020-Aug-07 01:02 024 23.9
2020-Aug-07 00:57 024 23.3
2020-Aug-07 00:52 024 23.3
2020-Aug-07 00:47 024 23.3
2020-Aug-07 00:42 024 23.3
2020-Aug-07 00:37 024 23.3
2020-Aug-07 00:32 024 23.3
2020-Aug-07 00:27 024 22.8
2020-Aug-07 00:22 024 22.8
2020-Aug-07 00:17 024 22.8
2020-Aug-07 00:12 024 22.8
2020-Aug-07 00:07 024 22.8
2020-Aug-07 00:02 025 22.8
2020-Aug-06 23:57 024 22.2
2020-Aug-06 23:52 024 22.2
2020-Aug-06 23:47 025 22.2
2020-Aug-06 23:42 024 22.2
2020-Aug-06 23:37 024 22.2
2020-Aug-06 23:32 024 22.2
2020-Aug-06 23:27 024 22.2
2020-Aug-06 23:22 025 22.2
2020-Aug-06 23:17 024 22.2
2020-Aug-06 23:12 041 22.2
2020-Aug-06 23:07 041 22.2
2020-Aug-06 23:02 041 22.2
2020-Aug-06 22:57 043 22.8
2020-Aug-06 22:52 046 22.8
2020-Aug-06 22:47 015 22.8
2020-Aug-06 22:42 048 23.3
2020-Aug-06 22:37 047 22.8
2020-Aug-06 22:32 052 22.8
2020-Aug-06 22:27 042 22.8
2020-Aug-06 22:22 040 22.8
2020-Aug-06 22:17 040 23.3
2020-Aug-06 22:12 026 23.3
2020-Aug-06 22:07 013 23.3
2020-Aug-06 22:02 007 23.3
2020-Aug-06 21:57 007 23.9
2020-Aug-06 21:52 007 23.9
2020-Aug-06 21:47 007 23.9
2020-Aug-06 21:42 007 23.9
2020-Aug-06 21:37 007 23.9
2020-Aug-06 21:32 007 23.9
2020-Aug-06 21:27 007 24.4
2020-Aug-06 21:22 007 24.4
2020-Aug-06 21:17 007 24.4
2020-Aug-06 21:12 007 24.4
2020-Aug-06 21:07 007 24.4
2020-Aug-06 21:02 007 24.4
2020-Aug-06 20:57 352 25.0
2020-Aug-06 20:52 352 25.0
2020-Aug-06 20:47 352 25.0
2020-Aug-06 20:42 352 25.0
2020-Aug-06 20:37 352 25.0
2020-Aug-06 20:32 057 25.0
2020-Aug-06 20:27 057 25.6
2020-Aug-06 20:22 091 25.6
2020-Aug-06 20:17 051 25.0
2020-Aug-06 20:12 049 25.0
2020-Aug-06 20:07 031 25.0
2020-Aug-06 20:02 025 25.6
2020-Aug-06 19:57 226 25.6
2020-Aug-06 19:52 226 25.6
2020-Aug-06 19:47 226 25.6
2020-Aug-06 19:42 226 25.6
2020-Aug-06 19:37 226 25.6
2020-Aug-06 19:32 226 25.6
2020-Aug-06 19:27 226 25.6
2020-Aug-06 19:22 226 25.6
2020-Aug-06 19:17 226 25.6
2020-Aug-06 19:12 262 25.6
2020-Aug-06 19:07 274 25.6
2020-Aug-06 19:02 261 25.6
2020-Aug-06 18:57 283 25.6
2020-Aug-06 18:52 221 25.6
2020-Aug-06 18:47 257 25.6
2020-Aug-06 18:42 252 25.6
2020-Aug-06 18:37 250 25.6
2020-Aug-06 18:32 243 26.1
2020-Aug-06 18:27 271 26.1
2020-Aug-06 18:22 249 26.1
2020-Aug-06 18:17 275 0 gusting 6 26.1
2020-Aug-06 18:12 262 0 gusting 6 26.1
2020-Aug-06 18:07 303 0 gusting 6 26.1
2020-Aug-06 18:02 262 0 gusting 9 26.1
2020-Aug-06 17:57 242 0 gusting 9 26.1
2020-Aug-06 17:52 269 0 gusting 10 26.1
2020-Aug-06 17:47 240 1 gusting 10 26.1
2020-Aug-06 17:42 214 2 gusting 10 26.1
2020-Aug-06 17:37 243 2 gusting 9 26.1
2020-Aug-06 17:32 257 2 gusting 10 26.1
2020-Aug-06 17:27 257 2 gusting 11 26.1
2020-Aug-06 17:22 246 3 gusting 11 26.1
2020-Aug-06 17:17 249 3 gusting 11 26.1
2020-Aug-06 17:12 231 3 gusting 11 26.1
2020-Aug-06 17:07 248 3 gusting 11 26.1
2020-Aug-06 17:02 271 3 gusting 9 26.7
2020-Aug-06 16:57 238 3 gusting 12 26.7
2020-Aug-06 16:52 234 3 gusting 12 26.7
2020-Aug-06 16:47 242 3 gusting 12 26.7
2020-Aug-06 16:42 262 1 gusting 8 26.7
2020-Aug-06 16:37 224 0 gusting 6 26.7
2020-Aug-06 16:32 238 1 gusting 6 26.7
2020-Aug-06 16:27 271 0 gusting 6 27.2
2020-Aug-06 16:22 250 1 gusting 7 27.2
2020-Aug-06 16:17 246 0 gusting 7 27.2
2020-Aug-06 16:12 252 0 gusting 7 27.2
2020-Aug-06 16:07 265 27.8
2020-Aug-06 16:02 270 27.8
2020-Aug-06 15:57 233 27.8
2020-Aug-06 15:52 248 27.8
2020-Aug-06 15:47 242 27.8
2020-Aug-06 15:42 262 27.8
2020-Aug-06 15:37 236 27.8
2020-Aug-06 15:32 229 27.8
2020-Aug-06 15:27 240 28.3
2020-Aug-06 15:22 252 28.3
2020-Aug-06 15:17 280 28.3
2020-Aug-06 15:12 245 28.3
2020-Aug-06 15:07 205 28.3
2020-Aug-06 15:02 247 28.3
2020-Aug-06 14:57 255 28.3
2020-Aug-06 14:52 290 28.3
2020-Aug-06 14:47 272 28.3
2020-Aug-06 14:42 293 0 gusting 8 28.3
2020-Aug-06 14:37 229 0 gusting 10 28.3
2020-Aug-06 14:32 230 1 gusting 10 28.3
2020-Aug-06 14:27 214 2 gusting 10 28.3
2020-Aug-06 14:22 299 1 gusting 10 28.3
2020-Aug-06 14:17 255 1 gusting 10 28.3
2020-Aug-06 14:12 281 2 gusting 13 28.3
2020-Aug-06 14:07 232 3 gusting 13 28.3
2020-Aug-06 14:02 293 3 gusting 13 28.3
2020-Aug-06 13:57 225 3 gusting 13 28.3
2020-Aug-06 13:52 195 3 gusting 11 28.3
2020-Aug-06 13:47 267 3 gusting 11 28.3
2020-Aug-06 13:42 258 4 gusting 13 28.3
2020-Aug-06 13:37 039 3 gusting 13 28.9
2020-Aug-06 13:32 264 3 gusting 13 28.9
2020-Aug-06 13:27 264 3 gusting 12 28.9
2020-Aug-06 13:22 198 3 gusting 11 28.9
2020-Aug-06 13:17 247 3 gusting 11 28.9
2020-Aug-06 13:12 259 3 gusting 11 28.9
2020-Aug-06 13:07 245 2 gusting 8 28.9
2020-Aug-06 13:02 334 0 gusting 7 28.9
2020-Aug-06 12:57 254 0 gusting 10 28.9
2020-Aug-06 12:52 210 2 gusting 10 28.9
2020-Aug-06 12:47 245 3 gusting 10 28.3
2020-Aug-06 12:42 217 3 gusting 10 28.9
2020-Aug-06 12:37 225 3 gusting 9 28.9
2020-Aug-06 12:32 219 1 gusting 6 28.9
2020-Aug-06 12:27 236 0 gusting 9 28.9
2020-Aug-06 12:22 241 1 gusting 9 28.3
2020-Aug-06 12:17 248 3 gusting 10 28.3
2020-Aug-06 12:12 225 1 gusting 10 28.9
2020-Aug-06 12:07 260 0 gusting 10 28.9
2020-Aug-06 12:02 153 0 gusting 5 28.9
2020-Aug-06 11:57 228 28.9
2020-Aug-06 11:52 249 0 gusting 6 28.9
2020-Aug-06 11:47 228 1 gusting 6 28.3
2020-Aug-06 11:42 195 1 gusting 6 28.3
2020-Aug-06 11:37 239 0 gusting 6 28.9
2020-Aug-06 11:32 233 1 gusting 6 28.3
2020-Aug-06 11:27 236 0 gusting 7 28.3
2020-Aug-06 11:22 256 1 gusting 8 28.9
2020-Aug-06 11:17 229 2 gusting 8 28.9
2020-Aug-06 11:12 157 1 gusting 8 28.9
2020-Aug-06 11:07 251 29.4
2020-Aug-06 11:02 223 0 gusting 8 28.9
2020-Aug-06 10:57 243 1 gusting 8 28.9
2020-Aug-06 10:52 280 1 gusting 8 28.3
2020-Aug-06 10:47 234 0 gusting 6 28.9
2020-Aug-06 10:42 236 0 gusting 6 28.3
2020-Aug-06 10:37 247 0 gusting 6 28.3
2020-Aug-06 10:32 232 1 gusting 6 28.3
2020-Aug-06 10:27 226 1 gusting 6 28.3
2020-Aug-06 10:22 224 0 gusting 3 28.9
2020-Aug-06 10:17 222 0 gusting 5 28.9
2020-Aug-06 10:12 236 0 gusting 5 28.9
2020-Aug-06 10:07 208 1 gusting 4 28.3
2020-Aug-06 10:02 278 0 gusting 4 28.3
2020-Aug-06 09:57 218 28.9
2020-Aug-06 09:52 263 28.9
2020-Aug-06 09:47 261 28.9
2020-Aug-06 09:42 262 29.4
2020-Aug-06 09:37 217 29.4
2020-Aug-06 09:32 205 29.4
2020-Aug-06 09:27 214 29.4
2020-Aug-06 09:22 173 28.9
2020-Aug-06 09:17 220 28.9
2020-Aug-06 09:12 229 28.9
2020-Aug-06 09:07 255 28.9
2020-Aug-06 09:02 264 28.9
2020-Aug-06 08:57 248 28.9
2020-Aug-06 08:52 259 28.9
2020-Aug-06 08:47 224 28.9
2020-Aug-06 08:42 231 28.9
2020-Aug-06 08:37 235 28.9
2020-Aug-06 08:32 228 28.3
2020-Aug-06 08:27 214 28.9
2020-Aug-06 08:22 244 28.9
2020-Aug-06 08:17 229 29.4
2020-Aug-06 08:12 226 29.4
2020-Aug-06 08:07 222 29.4
2020-Aug-06 08:02 255 29.4
2020-Aug-06 07:57 262 29.4
2020-Aug-06 07:52 261 28.9
2020-Aug-06 07:47 245 28.9
2020-Aug-06 07:42 262 28.9
2020-Aug-06 07:37 257 28.9
2020-Aug-06 07:32 247 28.9
2020-Aug-06 07:27 247 28.9
2020-Aug-06 07:22 276 29.4
2020-Aug-06 07:17 236 29.4
2020-Aug-06 07:12 315 29.4
2020-Aug-06 07:07 271 30.0
2020-Aug-06 07:02 280 30.6
2020-Aug-06 06:57 250 31.1
2020-Aug-06 06:52 263 31.1
2020-Aug-06 06:47 266 31.7
2020-Aug-06 06:42 274 32.8
2020-Aug-06 06:37 113 33.9
2020-Aug-06 06:32 113 33.3
2020-Aug-06 06:27 113 32.8
2020-Aug-06 06:22 113 31.7
2020-Aug-06 06:17 113 30.6
2020-Aug-06 06:12 113 30.0
2020-Aug-06 06:07 105 30.0
2020-Aug-06 06:02 091 29.4
2020-Aug-06 05:57 091 28.9
2020-Aug-06 05:52 091 28.3
2020-Aug-06 05:47 091 27.8
2020-Aug-06 05:42 089 27.8
2020-Aug-06 05:37 089 27.2
2020-Aug-06 05:32 089 26.7
2020-Aug-06 05:27 088 26.7
2020-Aug-06 05:22 089 26.1
2020-Aug-06 05:17 089 25.6
2020-Aug-06 05:12 089 25.0
2020-Aug-06 05:07 089 24.4
2020-Aug-06 05:02 089 24.4
2020-Aug-06 04:57 089 23.9
2020-Aug-06 04:52 089 23.3
2020-Aug-06 04:47 067 23.3
2020-Aug-06 04:42 083 22.8
2020-Aug-06 04:37 092 22.8
2020-Aug-06 04:32 034 22.8
2020-Aug-06 04:27 085 22.8
2020-Aug-06 04:22 085 22.2
2020-Aug-06 04:17 070 21.7
2020-Aug-06 04:12 054 21.7
2020-Aug-06 04:07 049 21.1
2020-Aug-06 04:02 040 21.1
2020-Aug-06 03:57 040 21.7
2020-Aug-06 03:52 046 21.7
2020-Aug-06 03:47 040 21.1
2020-Aug-06 03:42 036 21.1
2020-Aug-06 03:37 045 21.1
2020-Aug-06 03:32 029 21.1
2020-Aug-06 03:27 041 21.1
2020-Aug-06 03:22 041 21.7
2020-Aug-06 03:17 053 21.7
2020-Aug-06 03:12 053 21.7
2020-Aug-06 03:07 053 21.7
2020-Aug-06 03:02 053 21.7
2020-Aug-06 02:57 046 21.7
2020-Aug-06 02:52 053 21.7
2020-Aug-06 02:47 046 21.7
2020-Aug-06 02:42 030 22.2
2020-Aug-06 02:37 077 22.2
2020-Aug-06 02:32 096 22.2
2020-Aug-06 02:27 078 22.8
2020-Aug-06 02:22 101 22.8
2020-Aug-06 02:17 084 22.8
2020-Aug-06 02:12 086 22.8
2020-Aug-06 02:07 088 22.8
2020-Aug-06 02:02 075 22.8
2020-Aug-06 01:57 089 22.8
2020-Aug-06 01:52 097 22.8
2020-Aug-06 01:47 092 22.8
2020-Aug-06 01:42 068 22.8
2020-Aug-06 01:37 085 22.8
2020-Aug-06 01:32 034 22.8
2020-Aug-06 01:27 078 22.8
2020-Aug-06 01:22 048 22.8
2020-Aug-06 01:17 041 22.8
2020-Aug-06 01:12 068 22.8
2020-Aug-06 01:07 068 22.8
2020-Aug-06 01:02 068 22.8
2020-Aug-06 00:57 068 23.3
2020-Aug-06 00:52 068 23.3
2020-Aug-06 00:47 068 23.3
2020-Aug-06 00:42 067 23.3
2020-Aug-06 00:37 043 23.3
2020-Aug-06 00:32 043 22.8
2020-Aug-06 00:27 046 22.8
2020-Aug-06 00:22 051 23.3
2020-Aug-06 00:17 051 23.3
2020-Aug-06 00:12 051 23.3
2020-Aug-06 00:07 051 23.3
2020-Aug-06 00:02 051 23.3
2020-Aug-05 23:57 044 23.3
2020-Aug-05 23:52 042 23.3
2020-Aug-05 23:47 042 23.3
2020-Aug-05 23:42 042 23.3
2020-Aug-05 23:37 027 23.9
2020-Aug-05 23:32 043 23.9
2020-Aug-05 23:27 044 24.4
2020-Aug-05 23:22 037 24.4
2020-Aug-05 23:17 088 24.4
2020-Aug-05 23:12 060 24.4
2020-Aug-05 23:07 041 23.9
2020-Aug-05 23:02 040 23.9
2020-Aug-05 22:57 040 23.9
2020-Aug-05 22:52 040 23.9
2020-Aug-05 22:47 048 24.4
2020-Aug-05 22:42 049 24.4
2020-Aug-05 22:37 045 24.4
2020-Aug-05 22:32 056 24.4
2020-Aug-05 22:27 055 25.0
2020-Aug-05 22:22 086 25.0
2020-Aug-05 22:17 094 25.0
2020-Aug-05 22:12 088 24.4
2020-Aug-05 22:07 045 24.4
2020-Aug-05 22:02 039 24.4
2020-Aug-05 21:57 042 24.4
2020-Aug-05 21:52 042 24.4
2020-Aug-05 21:47 042 24.4
2020-Aug-05 21:42 042 25.0
2020-Aug-05 21:37 041 25.0
2020-Aug-05 21:32 041 25.6
2020-Aug-05 21:27 041 25.6
2020-Aug-05 21:22 041 25.6
2020-Aug-05 21:17 041 25.6
2020-Aug-05 21:12 041 26.1
2020-Aug-05 21:07 041 26.1
2020-Aug-05 21:02 041 26.1
2020-Aug-05 20:57 041 26.1
2020-Aug-05 20:52 041 26.1
2020-Aug-05 20:47 041 26.1
2020-Aug-05 20:42 041 26.1
2020-Aug-05 20:37 041 26.1
2020-Aug-05 20:32 041 26.7
2020-Aug-05 20:27 041 26.7
2020-Aug-05 20:22 041 26.7
2020-Aug-05 20:17 041 26.7
2020-Aug-05 20:12 041 27.2
2020-Aug-05 20:07 041 27.2
2020-Aug-05 20:02 041 27.2
2020-Aug-05 19:57 041 27.8
2020-Aug-05 19:52 041 27.8
2020-Aug-05 19:47 046 28.3
2020-Aug-05 19:42 035 28.3
2020-Aug-05 19:37 045 28.9
2020-Aug-05 19:32 097 28.9
2020-Aug-05 19:27 082 29.4
2020-Aug-05 19:22 091 29.4
2020-Aug-05 19:17 087 29.4
2020-Aug-05 19:12 098 29.4
2020-Aug-05 19:07 065 29.4
2020-Aug-05 19:02 037 29.4
2020-Aug-05 18:57 074 29.4
2020-Aug-05 18:52 036 29.4
2020-Aug-05 18:47 069 29.4
2020-Aug-05 18:42 084 29.4
2020-Aug-05 18:37 046 29.4
2020-Aug-05 18:32 056 30.0
2020-Aug-05 18:27 026 30.0
2020-Aug-05 18:22 064 30.0
2020-Aug-05 18:17 048 30.6
2020-Aug-05 18:12 093 30.6
2020-Aug-05 18:07 113 30.6
2020-Aug-05 18:02 094 30.6
2020-Aug-05 17:57 084 30.6
2020-Aug-05 17:52 072 30.6
2020-Aug-05 17:47 058 31.1
2020-Aug-05 17:42 037 31.1
2020-Aug-05 17:37 349 31.7
2020-Aug-05 17:32 077 31.7
2020-Aug-05 17:27 108 31.7
2020-Aug-05 17:22 093 32.2
2020-Aug-05 17:17 106 0 gusting 5 32.2
2020-Aug-05 17:12 136 32.8
2020-Aug-05 17:07 113 33.3
2020-Aug-05 17:02 045 0 gusting 11 33.3